User: anonymous   Login
Location: Caltech
(34.1382°N, 118.1253°W)
Time: 06:26:36
(UTC-07:00)
Language:

SEDSat Delta rocket - Orbit

View from above orbital plane
View from above orbital plane
View from above satellite
View from above satellite

Ground track
Ground track

The orbit data is extracted from the following two-line orbital elements,

1 25510U 98061C   16209.15001096  .00000188  00000-0  23432-4 0  9992
2 25510  31.4323 204.3047 0328565  78.9113 353.8045 14.37059640930525
Epoch (UTC): 27 July 2016 03:36:00
Eccentricity: 0.0328565
inclination: 31.4323°
perigee height: 533 km
apogee height: 1003 km
right ascension of ascending node: 204.3047°
argument of perigee: 78.9113°
revolutions per day: 14.37059640
mean anomaly at epoch: 353.8045°
orbit number at epoch: 93052

The dashed part of the orbit path shows where the satellite is in the earth's shadow,  

DLR